Tracking 30995 objects as of 7-Jul-2025
HD Live streaming from Space Station
objects crossing your sky now

COSMOS 970 DEB

Track COSMOS 970 DEB now!
10-day predictions


NORAD ID: 14442
Int'l Code: 1977-121BE
Perigee: 946.4 km
Apogee: 965.8 km
Inclination: 65.4 °
Period: 104.0 minutes
Semi major axis: 7327 km
RCS: 0.062 m2 (small)
Launch date: December 21, 1977
Source: Commonwealth of Independent States (former USSR) (CIS)
Launch site: TYURATAM MISSILE AND SPACE COMPLEX (TTMTR)

Note: This is SATELLITE DEBRIS
Your satellite tracking list
BADR-5 (ARABSAT 5B)
Track 1 satellite(s)




NASA's NSSDC Master Catalog

Two Line Element Set (TLE):
1 14442U 77121BE  25187.58164571  .00001394  00000-0  13236-2 0  9997
2 14442  65.3677 264.9395 0013223 230.1048 239.7582 13.84222612354478
Source of the keplerian elements: AFSPC